Miscellaneous Local Product
Issued by NWS North Platte, NE

Home | Current Version | Previous Version | Graphics & Text | Print | Product List | Glossary On
Versions: 1 2 3 4 5 6 7 8 9 10 11 12 13 14 15 16 17 18 19 20 21 22 23 24 25 26 27 28 29 30 31 32 33 34 35 36 37 38 39 40 41 42 43 44 45 46 47 48 49 50
000
AXUS43 KLBF 011610
MISLBF


WESTERN AND NORTH CENTRAL NEBRASKA HOURLY WEATHER ROUNDUP
NATIONAL WEATHER SERVICE NORTH PLATTE NE
1100 AM CDT MON JUN 01 2015

***STATIONS NOT REPORTING VARIABLES SUCH AS SKY/WEATHER OR
PRESSURE ARE PROVIDED BY THE NEBRASKA DEPARTMENT OF
ROADS...RAWS...AND APRS NETWORKS...AND ARE NOT UNDER
NATIONAL WEATHER SERVICE QUALITY CONTROL***

...OBSERVATIONS IN AND NEAR THE EASTERN PANHANDLE OF NEBRASKA...

CITY           SKY/WX    TMP DP  RH WIND       PRES   REMARKS
PINE RIDGE     SUNNY     76  58  53 S7        29.98F
CHADRON        SUNNY     77  59  53 S5        29.96F
ALLIANCE       MOSUNNY   65  59  81 S13       30.03F
SIDNEY         SUNNY     72  58  61 SE9       30.06F
WHITECLAY        N/A     74  60  61 S13         N/A
CRESCENT LAKE    N/A     60  59  97 SE7         N/A
BIG SPRINGS      N/A     62  58  88 E5          N/A
$$

...OBSERVATIONS IN NORTH CENTRAL NEBRASKA...

CITY           SKY/WX    TMP DP  RH WIND       PRES   REMARKS
VALENTINE      MOSUNNY   70  57  63 S13       30.01F
THEDFORD       CLOUDY    65  58  76 S13G18    30.07S
AINSWORTH      PTSUNNY   68  58  69 S15G21    30.04S
O`NEILL        SUNNY     69  58  66 S18       30.08S
ORD            MOSUNNY   69  57  65 SE12G21   30.08S
BROKEN BOW     CLOUDY    68  57  68 S17G25    30.08S
BROWNLEE         N/A     69  56  63 S16         N/A
VALENTINE NWR    N/A     66  58  75 S15         N/A
SPRINGVIEW       N/A     70  59  67 S10G17      N/A
HALSEY           N/A     62  56  82 S9G16       N/A
NEWPORT          N/A     71  59  66 S18         N/A
SARGENT          N/A     66  59  78 S3          N/A
CHAMBERS         N/A     74  59  59 S8          N/A
EWING            N/A     69  58  68 S9G17       N/A
$$

...OBSERVATIONS IN SOUTHWEST NEBRASKA AND FAR NORTHEAST COLORADO...

CITY           SKY/WX    TMP DP  RH WIND       PRES   REMARKS
WRAY           FAIR      73  60  63 E6        30.05S
IMPERIAL       MOSUNNY   65  58  78 E7        30.05F
OGALLALA       CLOUDY    59  57  92 SE5       30.06F
NORTH PLATTE   CLOUDY    61  56  83 SE8       30.07S
MCCOOK         CLOUDY    63  57  81 SE9       30.06S
LEXINGTON      CLOUDY    67  60  78 S10       30.08S
PAXTON           N/A     59  57  94 SE6         N/A
GOTHENBURG       N/A     62  55  77 SE8         N/A
CALLAWAY         N/A     67  60  78 S15         N/A
$$

...NORTH PLATTE AREA...

CITY           SKY/WX    TMP DP  RH WIND       PRES   REMARKS
AIRPORT        CLOUDY    61  56  83 SE8       30.07S
$$

...SOME WEATHER OBSERVATIONS FROM AROUND THE REGION...

CITY           SKY/WX    TMP DP  RH WIND       PRES   REMARKS
DENVER         MOSUNNY   75  45  34 CALM      30.10S
LARAMIE        MOSUNNY   67  40  37 S14       30.18F
CHEYENNE       MOSUNNY   75  45  34 VRB5      30.12F
SCOTTSBLUFF    SUNNY     69  58  67 E9        30.01F
RAPID CITY     SUNNY     74  59  59 SE12      29.94F
PIERRE         SUNNY     70  57  63 S13       29.95F
WINNER         FAIR      73  56  54 S18G25    29.99F
SIOUX FALLS    MOSUNNY   66  50  56 SE16G23   30.13F
OMAHA          PTSUNNY   66  54  65 S12       30.16F
GRAND ISLAND   CLOUDY    66  55  67 S15       30.12S
KANSAS CITY    CLOUDY    62  53  72 E7        30.18S
WICHITA        PTSUNNY   68  57  68 SE8       30.13F
HAYS           MOSUNNY   70  55  60 SE17G23   30.07F
LIBERAL        MOSUNNY   72  64  78 S6        30.08S
GOODLAND       SUNNY     75  55  49 S5        30.05F
$$



USA.gov is the U.S. government's official web portal to all federal, state and local government web resources and services.